Regional Weather Roundup
Issued by NWS

Home | Current Version | Previous Version | Text Only | Print | Product List | Glossary On
Versions: 1 2 3 4 5 6 7 8 9 10 11 12 13 14 15 16 17 18 19 20 21 22 23 24 25 26 27 28 29 30 31 32 33 34 35 36 37 38 39 40 41 42 43 44 45 46 47 48 49 50
000
ASUS44 KEWX 261411
RWRTX
SOUTH TEXAS REGIONAL WEATHER ROUNDUP
NATIONAL WEATHER SERVICE AUSTIN/SAN ANTONIO TX
900 AM CDT THU MAY 26 2016

NOTE: "FAIR" INDICATED FEW OR NO CLOUDS BELOW 12,000 FEET WITH NO
SIGNIFICANT WEATHER AND/OR OBSTRUCTIONS TO VISIBILITY.

* - THESE STATIONS ARE NOT NWS OR FAA STATIONS...AND ARE NOT SUBJECT
    TO NWS AND FAA QUALITY CONTROL.

TXZ171-172-183>190-261500-
TEXAS HILL COUNTRY AND EDWARDS PLATEAU

CITY           SKY/WX    TMP DP  RH WIND       PRES   REMARKS
JUNCTION       CLOUDY    77  70  79 S6        29.94R
*LLANO         CLOUDY    79  75  89 SE7       29.96S
BURNET         LGT RAIN  76  74  93 S7        29.96S FOG
*HORSESHOE BAY CLOUDY    78  75  90 SE5       29.94R FOG
*KERRVILLE     DRIZZLE   76  74  93 SE9G16    29.97S
*FREDERICKSBRG LGT RAIN  75  72  88 S9        29.98R
*ROCKSPRINGS     N/A     73  70  88 SE10G17   29.99S
*BOERNE STAGE  CLOUDY    73  72  94 S9        29.97F
*CASTROVILLE   CLOUDY    79  76  90 SE8       29.95F FOG
HONDO          CLOUDY    78  76  93 S8        29.95S
*UVALDE        CLOUDY    77  74  92 S6        29.94R
DEL RIO        CLOUDY    76  67  73 SE12      29.89R
LAUGHLIN AFB   PTSUNNY   76  69  79 S13       29.90S
CARRIZO SPRGS  CLOUDY    77  75  94 SE6       29.89S
*EAGLE PASS    SUNNY     79  72  78 VRB6G14   29.91R
$$

TXZ173-191>194-202-209-217>225-228-261500-
CENTRAL AND SOUTH CENTRAL TEXAS

CITY           SKY/WX    TMP DP  RH WIND       PRES   REMARKS
GEORGETOWN     LGT RAIN  79  73  83 SE6       29.94F
AUSTIN/BERGSTM LGT RAIN  79  77  94 S8        29.94R FOG
AUSTIN/MABRY   CLOUDY    79  76  90 VRB3      29.96R FOG
*AUSTIN/EXEC   CLOUDY    77  77 100 CALM      29.96S FOG
*LAGO VISTA    CLOUDY    77  75  94 S7        29.97R FOG
SAN MARCOS     CLOUDY    79  77  94 S10       29.95S FOG
NEW BRAUNFELS  CLOUDY    80  76  87 S10       29.93R
RANDOLPH AFB   PTSUNNY   79  79 100 S12       29.94S
PT SAN ANTONIO CLOUDY    81  75  83 SE10      29.93S
SAN ANTONIO    CLOUDY    80  75  84 S12       29.95S
STINSON FIELD  CLOUDY    82  76  81 S12       29.92S
*PLEASANTON    CLOUDY    80  75  86 SE9       29.93S
*LA GRANGE       N/A     80  79  95 S6        29.95R FOG
*GIDDINGS      CLOUDY    78  75  91 S6        30.00R FOG
*GONZALES      CLOUDY    82  80  95 S9        29.94S FOG     HX  94
$$

TXZ163>164-176>182-195>201-210>213-226-227-235-261500-
SOUTHEAST TEXAS

CITY           SKY/WX    TMP DP  RH WIND       PRES   REMARKS
COLLEGE STN    CLOUDY    79  76  90 S8        29.98R
*BRYAN         CLOUDY    78  78 100 SE3       30.00R
*CALDWELL      PTSUNNY   79  79 100 SE7       30.00S FOG
*CROCKETT      CLOUDY    77  75  94 SE5       30.03S THUNDER
*BRENHAM       CLOUDY    80  78  94 S6        29.97S THUNDER FOG
HUNTSVILLE     CLOUDY    80  75  84 VRB3      29.99S
CONROE         CLOUDY    80  75  84 SE12      30.00S
HOUSTON BUSH   LGT RAIN  79  76  90 S7        30.00R
HOUSTON HOBBY  CLOUDY    81  77  88 S8        29.99R
*HOUSTON SW AP CLOUDY    80  76  89 SE3       30.00S
PEARLAND       CLOUDY    83  77  82 SE8       30.01R HX  92
HOUSTON HOOKS  LGT RAIN  81  77  88 VRB7      29.99S
ELLINGTON FLD  CLOUDY    82  73  74 SE7       30.01R
SUGAR LAND     CLOUDY    79  75  87 S8        29.99R
*HOUSTON EXEC    N/A     81  77  89 S10       30.00R
*CLEVELAND MUN CLOUDY    80  78  94 S3        30.01S FOG
*WHARTON       CLOUDY    80  77  93 SE9       29.99R
*COLUMBUS      CLOUDY    80  77  92 S9        29.97R
*EAGLE LAKE    CLOUDY    79  78  95 SE9       29.97S FOG
$$

TXZ214>216-236>238-261500-
THE UPPER TEXAS COAST

CITY           SKY/WX    TMP DP  RH WIND       PRES   REMARKS
*ORANGE        CLOUDY    82  74  78 S10       30.03F
PORT ARTHUR    CLOUDY    82  75  79 S13       30.01F
GALVESTON      CLOUDY    80  78  94 SE13      30.01R
ANGLETON       CLOUDY    82  76  81 S13       30.00R
*BAY CITY      CLOUDY    82  78  89 S13       30.00R HX  90
PALACIOS       CLOUDY    82  77  84 S14G22    29.98R HX  90
$$

TXZ229>234-239>247-261500-
TEXAS COASTAL BEND AND RIO GRANDE PLAINS

CITY           SKY/WX    TMP DP  RH WIND       PRES   REMARKS
VICTORIA       CLOUDY    83  77  82 S13       29.96S HX  92
*BEEVILLE      CLOUDY    74  74  98 S9        29.94F FOG
ROCKPORT       CLOUDY    83  77  82 S13G18    29.95R HX  92
*PORT ARANSAS  CLOUDY    82  80  94 S12G17    29.95S HX  93
*PORT LAVACA   CLOUDY    82  79  90 S10       29.96F FOG     HX  93
*INGLESIDE     CLOUDY    65  61  87 S12       29.95S
CORPUS CHRISTI CLOUDY    83  78  85 S9        29.94S HX  93
CORPUS NAS     CLOUDY    83  80  91 S16G23    29.94S HX  95
*ROBSTOWN      CLOUDY    83  79  89 SE8       29.94S HX  93
ALICE          CLOUDY    81  75  82 S7        29.93F
KINGSVILLE NAS CLOUDY    82  81  96 SE7       29.94S HX  95
COTULLA        CLOUDY    81  73  76 SE12      29.91F
*FAITH RANCH     N/A    N/A N/A N/A MISG        N/A
LAREDO         CLOUDY    81  76  84 SE14      29.89F
$$

TXZ248>255-261500-
DEEP SOUTH TEXAS

CITY           SKY/WX    TMP DP  RH WIND       PRES   REMARKS
BROWNSVILLE    CLOUDY    83  79  88 S13       29.95F HX  94
PORT ISABEL    CLOUDY    84  79  85 S13       29.95R HX  96
*SOUTH PADRE     N/A     82  79  89 S9        29.96R HX  93
HARLINGEN      MOSUNNY   84  78  82 SE14      29.93F HX  95
*HEBBRONVILLE  CLOUDY    78  74  87 S8        29.94F HAZE
MCALLEN        CLOUDY    83  79  88 SE10      29.94S FOG     HX  94
*WESLACO       MOSUNNY   83  78  84 SE9       29.94S HAZE    HX  92
FALFURRIAS     CLOUDY    79  74  83 E3        29.93F
EDINBURG       CLOUDY    85  79  83 S10       29.94S HX  97
*ZAPATA        CLOUDY    79  77  92 SE10      29.90F FOG
$$

TXZ213>215-236>238-242>244-246-247-251-254-255-261500-
CMAN STATIONS

STATION/POSITION TIME  TEMP    WIND        PRES    WAVE
                       AIR SEA DIR/SP/G            HT/PER
                 (UTC) (F)     (DEG/KT/KT) (MB)    (FT/S)
SABINE PASS      1300   80 81  150/ 11/ 13 1018.1
SEA RIM ST PARK  1400   81     140/ 10/ 15 1016.9
NORTH JETTY/GLS  1300   82 81                N/A
EAGLE POINT      1300   81 76  160/ 13/ 15 1015.7
MORGANS POINT    1300   81 77  140/  8/ 12 1015.7
MISSION/ARANSAS  1300   82                 1015.0
PORT O`CONNOR    1300          180/ 12/ 14   N/A
PORT ARANSAS     1400   81 83  150/ 17/ 18 1014.7
MALAQUITE BEACH  1300   82 83  160/ 14/ 16 1014.1
BAFFIN BAY       1300   81 83  180/ 12/ 16 1014.3
PORT ISABEL      1300   81 82  150/ 13/ 16 1014.2
$$

GMZ080-GMZ150>470-261500-
OFFSHORE BUOY REPORTS

STATION/POSITION TIME  TEMP    WIND        PRES    WAVE
                       AIR SEA DIR/SP/G            HT/PER
                 (UTC) (F)     (DEG/KT/KT) (MB)    (FT/S)
20 E GALVESTON   1350   80 80  150/ 16/ 19 1015.1    4/ 7
90 E PT ARANSAS  1350   81 81  160/ 17/ 21 1015.2    6/ 7
35 NE PT MANSFLD 1350   81 81  170/ 12/ 14 1014.2    6/ 7
200 E PT ISABEL  1350                        N/A     4/ 7
$$



USA.gov is the U.S. government's official web portal to all federal, state and local government web resources and services.